星链-3177 (STARLINK-3177 )

导读

STARLINK-3177是美国太空探索技术公司(SpaceX)星链(Starlink)互联网星座中的一颗低轨卫星,于2022年1月19日发射升空。星链项目旨在通过部署数千颗低轨卫星,为全球提供高速低延迟互联网服务,尤其覆盖地面基础设施难以到达的偏远区域。作为星链星座的组成部分,该卫星运行在近地轨道,助力SpaceX实现全球宽带网络覆盖的建设目标,推动全球互联网接入普惠化,同时也因星座规模引发太空交通与天文观测的相关讨论。

Basic Information
目录编号:
51138
目录名称:
STARLINK-3177
国际标识:
2022-005AL
轨道中心:
EARTH
卫星名称:
星链-3177
卫星全名:
星链-3177 (STARLINK-3177 )
卫星状态:
在轨 (已飞行1690 天)
发射日期:
2022-01-19 UTC
国别 :
美国 (US)
星等 :
--
Orbit Information
数据来源 国际轨道数据 AOE轨道数据
星历时间 2026-09-05T11:54:07+0800
6小时前
查看轨道信息
2026-09-03T22:00:00+0800
1天前
查看轨道信息
半长轴 6910.585km 6910.74km
偏心率 0.0001837 0.0002084
轨道倾角 53.169° 53.169°
近地点辐角 12.165° 63.469°
升交点赤经 212.228° 219.340°
平近点角 347.938° 340.258°
近地点 531.178km 531.162km
远地点 533.718km 534.044km
周期 95.287分钟 95.290分钟
每日圈数 15.112301 15.111793
Detailed Information
固有亮度:
5
最大亮度:
2.5
卫星平台:
Starlink v1.5
覆盖范围:
全球
运营商:
太空探索技术公司
运营商所在国:
美国
制造商(研发单位):
太空探索技术公司
制造商所在国:
美国
使用方式:
暂无
Satellite Introduction
星链(Starlink)计划是由太空探索技术公司(SpaceX)提出的一个巨型低轨卫星互联网星座项目,计划在2019年至2024年间在太空搭建由约1.2万颗卫星组成的“星链”网络,其中1584颗将部署在地球上空550千米处的近地轨道,并从2020年开始工作。该卫星仍在工作。
2D Orbit Map
3D Orbit Map
Orbit Altitude Analysis Chart
Orbit Inclination Analysis Chart
Orbit Comprehensive Analysis Chart
View Comprehensive Chart
Conjunction Data List
Event ID Objects TCA Miss Dist (km) Collision Risk Probability Collision Risk Index (CRI) Action
CDM_260830-013505-113806-978721
2026-08-30T
01:35:45+0000
1.631 km
极远距离
3.367834E-6 低风险 0.46
CDM_260906-070304-283405-113822
OBJECT K (42834)
2026-09-06T
07:03:14+0000
2.632 km
极远距离
1.588903E-6 低风险 0.39